Time,TemperatureF,DewpointF,PressureIn,WindDirection,WindDirectionDegrees,WindSpeedMPH,WindSpeedGustMPH,Humidity,HourlyPrecipIn,Conditions,Clouds,dailyrainin,SoftwareType,DateUTC
2013-03-02 00:00:00,50.4,45.8,29.99,NNW,338,0.0,2.0,84,0.00,,,0.00,VWS V14.01,2013-03-02 08:00:00,
2013-03-02 00:03:00,51.6,43.6,29.80,North,355,1.0,8.0,74,0.00,,,0.00,VWS V14.01,2013-03-02 08:03:00,
2013-03-02 00:08:00,51.6,43.6,29.80,North,355,2.0,8.0,74,0.00,,,0.00,VWS V14.01,2013-03-02 08:08:00,
2013-03-02 00:13:00,51.6,43.6,29.80,North,355,2.0,8.0,74,0.00,,,0.00,VWS V14.01,2013-03-02 08:13:00,
2013-03-02 00:18:00,51.5,43.5,29.80,North,355,1.0,8.0,74,0.00,,,0.00,VWS V14.01,2013-03-02 08:18:00,
2013-03-02 00:23:00,51.5,43.5,29.80,North,355,1.0,8.0,74,0.00,,,0.00,VWS V14.01,2013-03-02 08:23:00,
2013-03-02 00:28:00,51.6,43.6,29.80,North,355,3.0,8.0,74,0.00,,,0.00,VWS V14.01,2013-03-02 08:28:00,
2013-03-02 00:30:00,49.7,45.4,29.99,NNW,338,0.0,0.0,85,0.00,,,0.00,VWS V14.01,2013-03-02 08:30:00,
2013-03-02 00:33:00,51.7,43.7,29.80,North,355,2.0,8.0,74,0.00,,,0.00,VWS V14.01,2013-03-02 08:33:00,
2013-03-02 00:39:00,51.8,43.8,29.80,North,355,2.0,8.0,74,0.00,,,0.00,VWS V14.01,2013-03-02 08:39:00,
2013-03-02 00:44:00,51.9,43.9,29.80,North,355,3.0,8.0,74,0.00,,,0.00,VWS V14.01,2013-03-02 08:44:00,
2013-03-02 00:49:00,51.9,43.9,29.80,North,355,2.0,8.0,74,0.00,,,0.00,VWS V14.01,2013-03-02 08:49:00,
2013-03-02 00:54:00,51.8,43.4,29.80,North,355,3.0,8.0,73,0.00,,,0.00,VWS V14.01,2013-03-02 08:54:00,
2013-03-02 00:59:00,51.7,43.3,29.79,North,355,2.0,8.0,73,0.00,,,0.00,VWS V14.01,2013-03-02 08:59:00,
2013-03-02 01:00:00,49.2,45.2,30.00,NNW,338,0.0,2.0,86,0.00,,,0.00,VWS V14.01,2013-03-02 09:00:00,
2013-03-02 01:04:00,51.6,43.6,29.80,North,355,2.0,8.0,74,0.00,,,0.00,VWS V14.01,2013-03-02 09:04:00,
2013-03-02 01:09:00,51.6,43.6,29.80,North,355,2.0,8.0,74,0.00,,,0.00,VWS V14.01,2013-03-02 09:09:00,
2013-03-02 01:14:00,51.6,43.2,29.79,North,355,2.0,8.0,73,0.00,,,0.00,VWS V14.01,2013-03-02 09:14:00,
2013-03-02 01:19:00,51.6,43.6,29.79,North,355,2.0,8.0,74,0.00,,,0.00,VWS V14.01,2013-03-02 09:19:00,
2013-03-02 01:24:00,51.6,43.6,29.80,North,355,2.0,8.0,74,0.00,,,0.00,VWS V14.01,2013-03-02 09:24:00,
2013-03-02 01:29:00,51.6,43.6,29.79,North,355,2.0,8.0,74,0.00,,,0.00,VWS V14.01,2013-03-02 09:29:00,
2013-03-02 01:30:00,48.8,44.8,29.99,NNW,338,0.0,0.0,86,0.00,,,0.00,VWS V14.01,2013-03-02 09:30:00,
2013-03-02 01:34:00,51.6,43.6,29.80,North,355,2.0,8.0,74,0.00,,,0.00,VWS V14.01,2013-03-02 09:34:00,
2013-03-02 01:39:00,51.7,43.7,29.80,North,355,1.0,8.0,74,0.00,,,0.00,VWS V14.01,2013-03-02 09:39:00,
2013-03-02 01:44:00,51.7,43.7,29.79,North,355,2.0,8.0,74,0.00,,,0.00,VWS V14.01,2013-03-02 09:44:00,
2013-03-02 01:49:00,51.8,43.8,29.79,North,355,2.0,8.0,74,0.00,,,0.00,VWS V14.01,2013-03-02 09:49:00,
2013-03-02 01:54:00,51.8,43.8,29.78,North,355,0.0,8.0,74,0.00,,,0.00,VWS V14.01,2013-03-02 09:54:00,
2013-03-02 01:59:00,51.7,43.7,29.78,North,355,0.0,8.0,74,0.00,,,0.00,VWS V14.01,2013-03-02 09:59:00,
2013-03-02 02:00:00,47.9,44.2,30.00,NNW,338,0.0,1.0,87,0.00,,,0.00,VWS V14.01,2013-03-02 10:00:00,
2013-03-02 02:04:00,51.8,43.8,29.78,North,355,0.0,8.0,74,0.00,,,0.00,VWS V14.01,2013-03-02 10:04:00,
2013-03-02 02:14:00,51.5,43.5,29.78,North,355,3.0,8.0,74,0.00,,,0.00,VWS V14.01,2013-03-02 10:14:00,
2013-03-02 02:19:00,51.4,43.8,29.78,North,355,2.0,8.0,75,0.00,,,0.00,VWS V14.01,2013-03-02 10:19:00,
2013-03-02 02:24:00,51.3,43.7,29.78,North,355,2.0,8.0,75,0.00,,,0.00,VWS V14.01,2013-03-02 10:24:00,
2013-03-02 02:29:00,51.2,43.9,29.78,North,355,1.0,8.0,76,0.00,,,0.00,VWS V14.01,2013-03-02 10:29:00,
2013-03-02 02:30:00,47.3,43.9,30.01,NNW,338,1.0,2.0,88,0.00,,,0.00,VWS V14.01,2013-03-02 10:30:00,
2013-03-02 02:34:00,51.1,43.8,29.77,North,355,3.0,8.0,76,0.00,,,0.00,VWS V14.01,2013-03-02 10:34:00,
2013-03-02 02:39:00,50.8,43.5,29.77,North,355,2.0,8.0,76,0.00,,,0.00,VWS V14.01,2013-03-02 10:39:00,
2013-03-02 02:44:00,50.7,43.4,29.77,North,355,2.0,8.0,76,0.00,,,0.00,VWS V14.01,2013-03-02 10:44:00,
2013-03-02 02:49:00,50.7,43.8,29.77,North,355,2.0,8.0,77,0.00,,,0.00,VWS V14.01,2013-03-02 10:49:00,
2013-03-02 02:54:00,50.6,43.7,29.77,North,355,2.0,8.0,77,0.00,,,0.00,VWS V14.01,2013-03-02 10:54:00,
2013-03-02 02:59:00,50.6,43.7,29.76,North,356,2.0,8.0,77,0.00,,,0.00,VWS V14.01,2013-03-02 10:59:00,
2013-03-02 03:00:00,47.4,44.0,30.00,NNW,338,1.0,3.0,88,0.00,,,0.00,VWS V14.01,2013-03-02 11:00:00,
2013-03-02 03:04:00,50.6,43.7,29.77,North,355,2.0,8.0,77,0.00,,,0.00,VWS V14.01,2013-03-02 11:04:00,
2013-03-02 03:09:00,50.6,44.0,29.76,North,355,3.0,8.0,78,0.00,,,0.00,VWS V14.01,2013-03-02 11:09:00,
2013-03-02 03:14:00,50.7,44.1,29.76,North,356,1.0,8.0,78,0.00,,,0.00,VWS V14.01,2013-03-02 11:14:00,
2013-03-02 03:19:00,50.8,44.2,29.76,North,356,2.0,8.0,78,0.00,,,0.00,VWS V14.01,2013-03-02 11:19:00,
2013-03-02 03:24:00,50.9,44.3,29.76,North,356,2.0,8.0,78,0.00,,,0.00,VWS V14.01,2013-03-02 11:24:00,
2013-03-02 03:29:00,51.1,44.5,29.75,North,355,0.0,8.0,78,0.00,,,0.00,VWS V14.01,2013-03-02 11:29:00,
2013-03-02 03:30:00,47.1,44.0,29.99,NNW,338,0.0,1.0,89,0.00,,,0.00,VWS V14.01,2013-03-02 11:30:00,
2013-03-02 03:34:00,51.3,44.3,29.76,North,355,2.0,8.0,77,0.00,,,0.00,VWS V14.01,2013-03-02 11:34:00,
2013-03-02 03:39:00,51.5,44.5,29.76,North,355,1.0,8.0,77,0.00,,,0.00,VWS V14.01,2013-03-02 11:39:00,
2013-03-02 03:44:00,51.6,44.6,29.76,North,355,2.0,8.0,77,0.00,,,0.00,VWS V14.01,2013-03-02 11:44:00,
2013-03-02 03:49:00,51.6,44.6,29.76,North,356,2.0,8.0,77,0.00,,,0.00,VWS V14.01,2013-03-02 11:49:00,
2013-03-02 03:54:00,51.6,44.3,29.75,North,355,2.0,8.0,76,0.00,,,0.00,VWS V14.01,2013-03-02 11:54:00,
2013-03-02 03:59:00,51.6,44.6,29.75,North,355,2.0,8.0,77,0.00,,,0.00,VWS V14.01,2013-03-02 11:59:00,
2013-03-02 04:00:00,46.9,43.8,29.99,NNW,338,0.0,2.0,89,0.00,,,0.00,VWS V14.01,2013-03-02 12:00:00,
2013-03-02 04:04:00,51.5,44.5,29.76,North,355,2.0,8.0,77,0.00,,,0.00,VWS V14.01,2013-03-02 12:04:00,
2013-03-02 04:09:00,51.5,44.5,29.75,North,355,3.0,8.0,77,0.00,,,0.00,VWS V14.01,2013-03-02 12:09:00,
2013-03-02 04:14:00,51.4,44.4,29.75,North,355,2.0,8.0,77,0.00,,,0.00,VWS V14.01,2013-03-02 12:14:00,
2013-03-02 04:19:00,51.3,44.3,29.75,North,355,2.0,8.0,77,0.00,,,0.00,VWS V14.01,2013-03-02 12:19:00,
2013-03-02 04:24:00,51.1,44.5,29.75,North,355,3.0,8.0,78,0.00,,,0.00,VWS V14.01,2013-03-02 12:24:00,
2013-03-02 04:29:00,51.2,44.6,29.76,North,355,2.0,8.0,78,0.00,,,0.00,VWS V14.01,2013-03-02 12:29:00,
2013-03-02 04:30:00,46.8,44.0,29.99,NNW,338,0.0,0.0,90,0.00,,,0.00,VWS V14.01,2013-03-02 12:30:00,
2013-03-02 04:34:00,51.1,44.5,29.76,North,355,2.0,8.0,78,0.00,,,0.00,VWS V14.01,2013-03-02 12:34:00,
2013-03-02 04:39:00,51.2,44.9,29.75,North,355,2.0,8.0,79,0.00,,,0.00,VWS V14.01,2013-03-02 12:39:00,
2013-03-02 04:44:00,51.3,44.7,29.75,North,355,2.0,8.0,78,0.00,,,0.00,VWS V14.01,2013-03-02 12:44:00,
2013-03-02 04:49:00,51.2,44.9,29.76,North,355,2.0,8.0,79,0.00,,,0.00,VWS V14.01,2013-03-02 12:49:00,
2013-03-02 04:54:00,51.2,44.9,29.75,North,356,3.0,8.0,79,0.00,,,0.00,VWS V14.01,2013-03-02 12:54:00,
2013-03-02 04:59:00,51.4,45.1,29.76,North,355,2.0,8.0,79,0.00,,,0.00,VWS V14.01,2013-03-02 12:59:00,
2013-03-02 05:00:00,46.6,43.5,29.99,NNW,338,0.0,0.0,89,0.00,,,0.00,VWS V14.01,2013-03-02 13:00:00,
2013-03-02 05:04:00,51.3,44.7,29.76,North,355,1.0,8.0,78,0.00,,,0.00,VWS V14.01,2013-03-02 13:04:00,
2013-03-02 05:09:00,51.2,44.6,29.75,North,355,1.0,8.0,78,0.00,,,0.00,VWS V14.01,2013-03-02 13:09:00,
2013-03-02 05:14:00,51.3,44.7,29.75,North,355,1.0,8.0,78,0.00,,,0.00,VWS V14.01,2013-03-02 13:14:00,
2013-03-02 05:19:00,51.3,45.0,29.76,North,355,2.0,8.0,79,0.00,,,0.00,VWS V14.01,2013-03-02 13:19:00,
2013-03-02 05:24:00,51.4,45.1,29.75,North,355,2.0,8.0,79,0.00,,,0.00,VWS V14.01,2013-03-02 13:24:00,
2013-03-02 05:29:00,51.4,45.1,29.76,North,355,1.0,8.0,79,0.00,,,0.00,VWS V14.01,2013-03-02 13:29:00,
2013-03-02 05:30:00,46.7,43.9,29.98,NNW,338,0.0,0.0,90,0.00,,,0.00,VWS V14.01,2013-03-02 13:30:00,
2013-03-02 05:34:00,51.4,44.8,29.76,North,355,2.0,8.0,78,0.00,,,0.00,VWS V14.01,2013-03-02 13:34:00,
2013-03-02 05:39:00,51.5,44.9,29.76,North,355,2.0,8.0,78,0.00,,,0.00,VWS V14.01,2013-03-02 13:39:00,
2013-03-02 05:44:00,51.5,44.9,29.76,North,356,2.0,8.0,78,0.00,,,0.00,VWS V14.01,2013-03-02 13:44:00,
2013-03-02 05:49:00,51.4,45.1,29.76,North,355,0.0,8.0,79,0.00,,,0.00,VWS V14.01,2013-03-02 13:49:00,
2013-03-02 05:54:00,51.4,45.1,29.75,North,355,2.0,8.0,79,0.00,,,0.00,VWS V14.01,2013-03-02 13:54:00,
2013-03-02 05:59:00,51.4,45.1,29.75,North,355,0.0,8.0,79,0.00,,,0.00,VWS V14.01,2013-03-02 13:59:00,
2013-03-02 06:00:00,47.0,44.2,29.98,NNW,338,0.0,4.0,90,0.00,,,0.00,VWS V14.01,2013-03-02 14:00:00,
2013-03-02 06:04:00,51.4,45.1,29.76,North,356,0.0,8.0,79,0.00,,,0.00,VWS V14.01,2013-03-02 14:04:00,
2013-03-02 06:09:00,51.3,45.0,29.76,North,356,1.0,8.0,79,0.00,,,0.00,VWS V14.01,2013-03-02 14:09:00,
2013-03-02 06:14:00,51.3,45.0,29.75,North,356,0.0,8.0,79,0.00,,,0.00,VWS V14.01,2013-03-02 14:14:00,
2013-03-02 06:19:00,51.2,44.9,29.76,North,355,0.0,8.0,79,0.00,,,0.00,VWS V14.01,2013-03-02 14:19:00,
2013-03-02 06:25:00,51.1,45.2,29.76,North,355,2.0,8.0,80,0.00,,,0.00,VWS V14.01,2013-03-02 14:25:00,
2013-03-02 06:30:00,51.1,45.2,29.76,North,355,2.0,8.0,80,0.00,,,0.00,VWS V14.01,2013-03-02 14:30:00,
2013-03-02 06:35:00,51.0,45.1,29.76,North,355,2.0,8.0,80,0.00,,,0.00,VWS V14.01,2013-03-02 14:35:00,
2013-03-02 06:40:00,51.0,45.1,29.76,North,356,2.0,8.0,80,0.00,,,0.00,VWS V14.01,2013-03-02 14:40:00,
2013-03-02 06:45:00,51.0,45.1,29.76,North,355,2.0,8.0,80,0.00,,,0.00,VWS V14.01,2013-03-02 14:45:00,
2013-03-02 06:50:00,51.0,45.1,29.76,North,355,2.0,8.0,80,0.00,,,0.00,VWS V14.01,2013-03-02 14:50:00,
2013-03-02 06:55:00,51.0,45.1,29.76,North,355,1.0,8.0,80,0.00,,,0.00,VWS V14.01,2013-03-02 14:55:00,
2013-03-02 07:00:00,50.9,45.0,29.77,North,355,2.0,8.0,80,0.00,,,0.00,VWS V14.01,2013-03-02 15:00:00,
2013-03-02 07:05:00,51.0,45.1,29.76,North,356,2.0,8.0,80,0.00,,,0.00,VWS V14.01,2013-03-02 15:05:00,
2013-03-02 07:10:00,51.0,45.4,29.77,North,356,2.0,8.0,81,0.00,,,0.00,VWS V14.01,2013-03-02 15:10:00,
2013-03-02 07:15:00,50.9,45.3,29.77,North,356,1.0,8.0,81,0.00,,,0.00,VWS V14.01,2013-03-02 15:15:00,
2013-03-02 07:20:00,51.1,45.5,29.77,North,356,2.0,8.0,81,0.00,,,0.00,VWS V14.01,2013-03-02 15:20:00,
2013-03-02 07:25:00,51.4,45.8,29.77,North,355,2.0,8.0,81,0.00,,,0.00,VWS V14.01,2013-03-02 15:25:00,
2013-03-02 07:30:00,51.7,46.1,29.77,North,355,2.0,8.0,81,0.00,,,0.00,VWS V14.01,2013-03-02 15:30:00,
2013-03-02 07:35:00,52.0,46.4,29.76,North,356,1.0,8.0,81,0.00,,,0.00,VWS V14.01,2013-03-02 15:35:00,
2013-03-02 07:40:00,52.2,46.2,29.76,North,355,1.0,8.0,80,0.00,,,0.00,VWS V14.01,2013-03-02 15:40:00,
2013-03-02 07:55:00,51.0,45.4,29.77,North,0,2.0,4.0,81,0.00,,,0.00,VWS V14.01,2013-03-02 15:55:00,
2013-03-02 08:00:00,53.2,46.5,29.77,North,356,2.0,3.0,78,0.00,,,0.00,VWS V14.01,2013-03-02 16:00:00,
2013-03-02 08:05:00,53.4,46.7,29.77,North,356,2.0,3.0,78,0.00,,,0.00,VWS V14.01,2013-03-02 16:05:00,
2013-03-02 08:10:00,53.4,46.4,29.77,North,355,1.0,3.0,77,0.00,,,0.00,VWS V14.01,2013-03-02 16:10:00,
2013-03-02 08:15:00,53.6,46.9,29.76,North,356,1.0,3.0,78,0.00,,,0.00,VWS V14.01,2013-03-02 16:15:00,
2013-03-02 08:20:00,54.0,47.0,29.77,North,356,1.0,3.0,77,0.00,,,0.00,VWS V14.01,2013-03-02 16:20:00,
2013-03-02 08:25:00,54.4,47.0,29.77,North,355,0.0,3.0,76,0.00,,,0.00,VWS V14.01,2013-03-02 16:25:00,
2013-03-02 08:30:00,55.0,47.2,29.77,North,355,0.0,3.0,75,0.00,,,0.00,VWS V14.01,2013-03-02 16:30:00,
2013-03-02 08:35:00,55.6,47.1,29.77,North,356,0.0,3.0,73,0.00,,,0.00,VWS V14.01,2013-03-02 16:35:00,
2013-03-02 08:40:00,56.1,47.6,29.76,North,356,0.0,3.0,73,0.00,,,0.00,VWS V14.01,2013-03-02 16:40:00,
2013-03-02 08:45:00,56.5,47.2,29.76,North,355,0.0,3.0,71,0.00,,,0.00,VWS V14.01,2013-03-02 16:45:00,
2013-03-02 08:50:00,56.9,47.2,29.76,North,355,0.0,3.0,70,0.00,,,0.00,VWS V14.01,2013-03-02 16:50:00,
2013-03-02 08:55:00,57.3,47.2,29.77,North,356,0.0,3.0,69,0.00,,,0.00,VWS V14.01,2013-03-02 16:55:00,
2013-03-02 09:00:00,57.8,46.9,29.76,North,355,1.0,4.0,67,0.00,,,0.00,VWS V14.01,2013-03-02 17:00:00,
2013-03-02 09:05:00,58.4,48.3,29.76,North,355,0.0,4.0,69,0.00,,,0.00,VWS V14.01,2013-03-02 17:05:00,
2013-03-02 09:10:00,58.8,47.9,29.76,North,355,0.0,4.0,67,0.00,,,0.00,VWS V14.01,2013-03-02 17:10:00,
2013-03-02 09:15:00,59.0,48.1,29.77,North,355,0.0,4.0,67,0.00,,,0.00,VWS V14.01,2013-03-02 17:15:00,
2013-03-02 09:20:00,59.3,48.0,29.76,North,355,0.0,4.0,66,0.00,,,0.00,VWS V14.01,2013-03-02 17:20:00,
2013-03-02 09:25:00,59.6,47.8,29.76,North,355,0.0,4.0,65,0.00,,,0.00,VWS V14.01,2013-03-02 17:25:00,
2013-03-02 09:30:00,59.8,47.6,29.76,North,355,0.0,4.0,64,0.00,,,0.00,VWS V14.01,2013-03-02 17:30:00,
2013-03-02 09:35:00,60.2,48.0,29.77,North,355,0.0,4.0,64,0.00,,,0.00,VWS V14.01,2013-03-02 17:35:00,
2013-03-02 09:40:00,60.6,47.5,29.76,North,355,0.0,4.0,62,0.00,,,0.00,VWS V14.01,2013-03-02 17:40:00,
2013-03-02 09:45:00,60.8,47.3,29.77,North,356,0.0,4.0,61,0.00,,,0.00,VWS V14.01,2013-03-02 17:45:00,
2013-03-02 09:50:00,61.5,47.9,29.76,North,355,0.0,4.0,61,0.00,,,0.00,VWS V14.01,2013-03-02 17:50:00,
2013-03-02 09:55:00,62.1,48.1,29.76,North,355,0.0,4.0,60,0.00,,,0.00,VWS V14.01,2013-03-02 17:55:00,
2013-03-02 10:00:00,62.7,48.2,29.76,North,355,0.0,4.0,59,0.00,,,0.00,VWS V14.01,2013-03-02 18:00:00,
2013-03-02 10:05:00,63.1,48.6,29.76,North,355,0.0,4.0,59,0.00,,,0.00,VWS V14.01,2013-03-02 18:05:00,
2013-03-02 10:10:00,63.4,48.4,29.76,North,355,0.0,4.0,58,0.00,,,0.00,VWS V14.01,2013-03-02 18:10:00,
2013-03-02 10:15:00,63.7,47.2,29.76,North,355,0.0,4.0,55,0.00,,,0.00,VWS V14.01,2013-03-02 18:15:00,
2013-03-02 10:20:00,63.9,48.4,29.76,North,356,0.0,4.0,57,0.00,,,0.00,VWS V14.01,2013-03-02 18:20:00,
2013-03-02 10:25:00,63.8,47.3,29.76,North,355,0.0,4.0,55,0.00,,,0.00,VWS V14.01,2013-03-02 18:25:00,
2013-03-02 10:30:00,64.0,48.0,29.76,North,355,0.0,4.0,56,0.00,,,0.00,VWS V14.01,2013-03-02 18:30:00,
2013-03-02 10:35:00,64.2,48.2,29.76,North,355,0.0,4.0,56,0.00,,,0.00,VWS V14.01,2013-03-02 18:35:00,
2013-03-02 10:40:00,64.5,48.0,29.76,North,355,1.0,4.0,55,0.00,,,0.00,VWS V14.01,2013-03-02 18:40:00,
2013-03-02 10:45:00,64.6,48.1,29.75,North,355,1.0,4.0,55,0.00,,,0.00,VWS V14.01,2013-03-02 18:45:00,
2013-03-02 10:50:00,64.6,48.1,29.76,North,356,1.0,4.0,55,0.00,,,0.00,VWS V14.01,2013-03-02 18:50:00,
2013-03-02 10:55:00,64.5,48.0,29.75,North,355,2.0,4.0,55,0.00,,,0.00,VWS V14.01,2013-03-02 18:55:00,
2013-03-02 11:00:00,64.4,47.9,29.75,North,356,1.0,4.0,55,0.00,,,0.00,VWS V14.01,2013-03-02 19:00:00,
2013-03-02 11:05:00,64.3,46.8,29.74,North,1,6.0,6.0,53,0.00,,,0.00,VWS V14.01,2013-03-02 19:05:00,
2013-03-02 11:10:00,64.3,47.3,29.74,North,3,1.0,8.0,54,0.00,,,0.00,VWS V14.01,2013-03-02 19:10:00,
2013-03-02 11:15:00,64.1,47.1,29.73,NNW,339,0.0,8.0,54,0.00,,,0.00,VWS V14.01,2013-03-02 19:15:00,
2013-03-02 11:20:00,64.2,47.7,29.74,NNW,336,0.0,8.0,55,0.00,,,0.00,VWS V14.01,2013-03-02 19:20:00,
2013-03-02 11:25:00,64.4,47.9,29.74,NNW,336,0.0,8.0,55,0.00,,,0.00,VWS V14.01,2013-03-02 19:25:00,
2013-03-02 11:30:00,64.2,47.2,29.74,NNW,337,3.0,8.0,54,0.00,,,0.00,VWS V14.01,2013-03-02 19:30:00,
2013-03-02 11:35:00,63.9,47.0,29.73,NNW,337,0.0,8.0,54,0.00,,,0.00,VWS V14.01,2013-03-02 19:35:00,
2013-03-02 11:40:00,64.4,48.4,29.73,NNW,337,0.0,8.0,56,0.00,,,0.00,VWS V14.01,2013-03-02 19:40:00,
2013-03-02 11:45:00,65.2,48.6,29.72,NNW,337,0.0,8.0,55,0.00,,,0.00,VWS V14.01,2013-03-02 19:45:00,
2013-03-02 11:50:00,65.9,48.3,29.72,NNW,343,0.0,8.0,53,0.00,,,0.00,VWS V14.01,2013-03-02 19:50:00,
2013-03-02 11:55:00,66.4,48.8,29.72,NNW,344,3.0,8.0,53,0.00,,,0.00,VWS V14.01,2013-03-02 19:55:00,
2013-03-02 12:00:00,67.0,48.3,29.72,North,358,3.0,8.0,51,0.00,,,0.00,VWS V14.01,2013-03-02 20:00:00,
2013-03-02 12:05:00,67.3,48.0,29.72,North,359,0.0,8.0,50,0.00,,,0.00,VWS V14.01,2013-03-02 20:05:00,
2013-03-02 12:10:00,67.7,48.4,29.72,North,359,1.0,8.0,50,0.00,,,0.00,VWS V14.01,2013-03-02 20:10:00,
2013-03-02 12:15:00,67.8,48.5,29.72,North,359,2.0,8.0,50,0.00,,,0.00,VWS V14.01,2013-03-02 20:15:00,
2013-03-02 12:20:00,67.9,49.1,29.72,North,359,2.0,8.0,51,0.00,,,0.00,VWS V14.01,2013-03-02 20:20:00,
2013-03-02 12:25:00,67.9,49.1,29.71,North,359,0.0,8.0,51,0.00,,,0.00,VWS V14.01,2013-03-02 20:25:00,
2013-03-02 12:30:00,68.0,48.7,29.71,North,359,1.0,8.0,50,0.00,,,0.00,VWS V14.01,2013-03-02 20:30:00,
2013-03-02 12:35:00,67.3,48.0,29.71,North,0,3.0,8.0,50,0.00,,,0.00,VWS V14.01,2013-03-02 20:35:00,
2013-03-02 12:40:00,66.5,47.3,29.71,North,1,0.0,8.0,50,0.00,,,0.00,VWS V14.01,2013-03-02 20:40:00,
2013-03-02 12:45:00,66.1,47.5,29.70,North,2,0.0,8.0,51,0.00,,,0.00,VWS V14.01,2013-03-02 20:45:00,
2013-03-02 12:50:00,66.1,47.5,29.69,North,2,0.0,8.0,51,0.00,,,0.00,VWS V14.01,2013-03-02 20:50:00,
2013-03-02 12:55:00,66.2,48.1,29.69,North,3,1.0,8.0,52,0.00,,,0.00,VWS V14.01,2013-03-02 20:55:00,
2013-03-02 13:00:00,65.2,48.6,29.92,NNW,338,0.0,4.0,55,0.00,,,0.00,VWS V14.01,2013-03-02 21:00:00,
2013-03-02 13:01:00,66.6,48.4,29.69,North,3,0.0,8.0,52,0.00,,,0.00,VWS V14.01,2013-03-02 21:01:00,
2013-03-02 13:06:00,66.9,48.2,29.69,North,3,0.0,8.0,51,0.00,,,0.00,VWS V14.01,2013-03-02 21:06:00,
2013-03-02 13:11:00,67.5,48.8,29.69,North,3,0.0,8.0,51,0.00,,,0.00,VWS V14.01,2013-03-02 21:11:00,
2013-03-02 13:16:00,67.9,49.1,29.69,North,3,0.0,8.0,51,0.00,,,0.00,VWS V14.01,2013-03-02 21:16:00,
2013-03-02 13:21:00,68.4,49.1,29.69,North,3,0.0,8.0,50,0.00,,,0.00,VWS V14.01,2013-03-02 21:21:00,
2013-03-02 13:26:00,68.7,48.8,29.68,North,3,0.0,8.0,49,0.00,,,0.00,VWS V14.01,2013-03-02 21:26:00,
2013-03-02 13:30:00,67.5,47.7,29.89,NNW,338,1.0,6.0,49,0.00,,,0.00,VWS V14.01,2013-03-02 21:30:00,
2013-03-02 13:31:00,68.8,49.4,29.68,North,3,0.0,8.0,50,0.00,,,0.00,VWS V14.01,2013-03-02 21:31:00,
2013-03-02 13:36:00,69.1,49.2,29.69,North,3,1.0,8.0,49,0.00,,,0.00,VWS V14.01,2013-03-02 21:36:00,
2013-03-02 13:41:00,68.8,49.4,29.68,North,3,0.0,8.0,50,0.00,,,0.00,VWS V14.01,2013-03-02 21:41:00,
2013-03-02 13:46:00,68.5,48.6,29.68,North,3,2.0,8.0,49,0.00,,,0.00,VWS V14.01,2013-03-02 21:46:00,
2013-03-02 13:51:00,68.3,48.4,29.67,North,3,0.0,8.0,49,0.00,,,0.00,VWS V14.01,2013-03-02 21:51:00,
2013-03-02 13:56:00,68.1,48.8,29.67,North,3,0.0,8.0,50,0.00,,,0.00,VWS V14.01,2013-03-02 21:56:00,
2013-03-02 14:00:00,68.0,46.5,29.88,SSE,158,2.0,8.0,46,0.00,,,0.00,VWS V14.01,2013-03-02 22:00:00,
2013-03-02 14:01:00,68.0,48.7,29.67,North,3,0.0,8.0,50,0.00,,,0.00,VWS V14.01,2013-03-02 22:01:00,
2013-03-02 14:06:00,68.1,48.2,29.67,North,3,0.0,8.0,49,0.00,,,0.00,VWS V14.01,2013-03-02 22:06:00,
2013-03-02 14:11:00,68.2,48.3,29.67,North,3,0.0,8.0,49,0.00,,,0.00,VWS V14.01,2013-03-02 22:11:00,
2013-03-02 14:16:00,68.6,49.2,29.67,North,3,0.0,8.0,50,0.00,,,0.00,VWS V14.01,2013-03-02 22:16:00,
2013-03-02 14:21:00,69.2,49.2,29.67,North,3,0.0,8.0,49,0.00,,,0.00,VWS V14.01,2013-03-02 22:21:00,
2013-03-02 14:26:00,69.6,48.5,29.66,North,3,0.0,8.0,47,0.00,,,0.00,VWS V14.01,2013-03-02 22:26:00,
2013-03-02 14:30:00,68.4,46.2,29.87,SSE,158,1.0,6.0,45,0.00,,,0.00,VWS V14.01,2013-03-02 22:30:00,
2013-03-02 14:31:00,69.6,49.1,29.66,North,3,0.0,8.0,48,0.00,,,0.00,VWS V14.01,2013-03-02 22:31:00,
2013-03-02 14:36:00,69.5,49.0,29.65,North,3,0.0,8.0,48,0.00,,,0.00,VWS V14.01,2013-03-02 22:36:00,
2013-03-02 14:41:00,69.3,48.8,29.65,North,3,2.0,8.0,48,0.00,,,0.00,VWS V14.01,2013-03-02 22:41:00,
2013-03-02 14:46:00,68.7,48.2,29.65,North,3,0.0,8.0,48,0.00,,,0.00,VWS V14.01,2013-03-02 22:46:00,
2013-03-02 14:51:00,68.7,48.8,29.65,North,3,0.0,8.0,49,0.00,,,0.00,VWS V14.01,2013-03-02 22:51:00,
2013-03-02 14:56:00,68.7,48.2,29.65,North,3,0.0,8.0,48,0.00,,,0.00,VWS V14.01,2013-03-02 22:56:00,
2013-03-02 15:00:00,71.8,46.9,29.85,SW,225,0.0,2.0,41,0.00,,,0.00,VWS V14.01,2013-03-02 23:00:00,
2013-03-02 15:01:00,68.6,48.7,29.65,North,3,0.0,8.0,49,0.00,,,0.00,VWS V14.01,2013-03-02 23:01:00,
2013-03-02 15:06:00,68.4,48.5,29.65,North,3,0.0,8.0,49,0.00,,,0.00,VWS V14.01,2013-03-02 23:06:00,
2013-03-02 15:11:00,68.3,48.4,29.65,North,3,0.0,8.0,49,0.00,,,0.00,VWS V14.01,2013-03-02 23:11:00,
2013-03-02 15:16:00,68.2,48.9,29.65,North,3,0.0,8.0,50,0.00,,,0.00,VWS V14.01,2013-03-02 23:16:00,
2013-03-02 15:21:00,68.2,48.9,29.64,North,3,0.0,8.0,50,0.00,,,0.00,VWS V14.01,2013-03-02 23:21:00,
2013-03-02 15:26:00,68.3,49.0,29.65,North,3,0.0,8.0,50,0.00,,,0.00,VWS V14.01,2013-03-02 23:26:00,
2013-03-02 15:30:00,72.7,45.7,29.83,SE,135,1.0,5.0,38,0.00,,,0.00,VWS V14.01,2013-03-02 23:30:00,
2013-03-02 15:31:00,68.1,49.3,29.64,North,3,0.0,8.0,51,0.00,,,0.00,VWS V14.01,2013-03-02 23:31:00,
2013-03-02 15:36:00,67.9,49.1,29.64,North,3,0.0,8.0,51,0.00,,,0.00,VWS V14.01,2013-03-02 23:36:00,
2013-03-02 15:41:00,67.5,48.8,29.64,North,3,0.0,8.0,51,0.00,,,0.00,VWS V14.01,2013-03-02 23:41:00,
2013-03-02 15:46:00,66.8,48.6,29.65,North,4,2.0,8.0,52,0.00,,,0.00,VWS V14.01,2013-03-02 23:46:00,
2013-03-02 15:51:00,66.2,48.6,29.65,North,4,0.0,8.0,53,0.00,,,0.00,VWS V14.01,2013-03-02 23:51:00,
2013-03-02 15:56:00,65.7,48.6,29.64,North,4,0.0,8.0,54,0.00,,,0.00,VWS V14.01,2013-03-02 23:56:00,
2013-03-02 16:00:00,72.8,43.6,29.83,NNW,338,1.0,6.0,35,0.00,,,0.00,VWS V14.01,2013-03-03 00:00:00,
2013-03-02 16:01:00,65.4,48.8,29.64,North,4,0.0,8.0,55,0.00,,,0.00,VWS V14.01,2013-03-03 00:01:00,
2013-03-02 16:06:00,65.3,49.2,29.64,North,4,0.0,8.0,56,0.00,,,0.00,VWS V14.01,2013-03-03 00:06:00,
2013-03-02 16:11:00,65.2,48.6,29.63,North,4,0.0,8.0,55,0.00,,,0.00,VWS V14.01,2013-03-03 00:11:00,
2013-03-02 16:16:00,65.3,49.7,29.62,North,4,0.0,8.0,57,0.00,,,0.00,VWS V14.01,2013-03-03 00:16:00,
2013-03-02 16:21:00,65.5,49.4,29.62,North,4,0.0,8.0,56,0.00,,,0.00,VWS V14.01,2013-03-03 00:21:00,
2013-03-02 16:26:00,65.4,49.3,29.64,North,4,0.0,8.0,56,0.00,,,0.00,VWS V14.01,2013-03-03 00:26:00,
2013-03-02 16:30:00,72.8,42.0,29.82,SE,135,1.0,7.0,33,0.00,,,0.00,VWS V14.01,2013-03-03 00:30:00,
2013-03-02 16:31:00,65.2,49.1,29.63,North,4,0.0,8.0,56,0.00,,,0.00,VWS V14.01,2013-03-03 00:31:00,
2013-03-02 16:36:00,65.0,48.9,29.64,North,4,0.0,8.0,56,0.00,,,0.00,VWS V14.01,2013-03-03 00:36:00,
2013-03-02 16:41:00,65.0,49.4,29.63,North,4,3.0,8.0,57,0.00,,,0.00,VWS V14.01,2013-03-03 00:41:00,
2013-03-02 16:46:00,64.8,49.7,29.63,North,4,4.0,8.0,58,0.00,,,0.00,VWS V14.01,2013-03-03 00:46:00,
2013-03-02 16:51:00,64.5,49.9,29.63,North,4,2.0,8.0,59,0.00,,,0.00,VWS V14.01,2013-03-03 00:51:00,
2013-03-02 16:56:00,64.3,49.7,29.63,North,4,2.0,8.0,59,0.00,,,0.00,VWS V14.01,2013-03-03 00:56:00,
2013-03-02 17:00:00,72.8,42.8,29.81,SE,135,1.0,5.0,34,0.00,,,0.00,VWS V14.01,2013-03-03 01:00:00,
2013-03-02 17:01:00,64.0,49.4,29.64,North,4,2.0,8.0,59,0.00,,,0.00,VWS V14.01,2013-03-03 01:01:00,
2013-03-02 17:06:00,63.7,49.1,29.64,North,4,4.0,8.0,59,0.00,,,0.00,VWS V14.01,2013-03-03 01:06:00,
2013-03-02 17:11:00,63.4,48.8,29.64,North,4,1.0,8.0,59,0.00,,,0.00,VWS V14.01,2013-03-03 01:11:00,
2013-03-02 17:16:00,63.2,49.1,29.65,North,4,0.0,8.0,60,0.00,,,0.00,VWS V14.01,2013-03-03 01:16:00,
2013-03-02 17:21:00,63.0,49.4,29.65,North,4,0.0,8.0,61,0.00,,,0.00,VWS V14.01,2013-03-03 01:21:00,
2013-03-02 17:26:00,62.8,49.2,29.64,North,4,3.0,8.0,61,0.00,,,0.00,VWS V14.01,2013-03-03 01:26:00,
2013-03-02 17:30:00,70.6,43.8,29.80,SSE,158,1.0,6.0,38,0.00,,,0.00,VWS V14.01,2013-03-03 01:30:00,
2013-03-02 17:31:00,62.6,49.0,29.64,North,4,2.0,8.0,61,0.00,,,0.00,VWS V14.01,2013-03-03 01:31:00,
2013-03-02 17:36:00,62.4,49.2,29.64,North,4,4.0,8.0,62,0.00,,,0.00,VWS V14.01,2013-03-03 01:36:00,
2013-03-02 17:41:00,62.1,48.9,29.63,North,4,3.0,8.0,62,0.00,,,0.00,VWS V14.01,2013-03-03 01:41:00,
2013-03-02 17:46:00,61.8,48.7,29.64,North,4,3.0,8.0,62,0.00,,,0.00,VWS V14.01,2013-03-03 01:46:00,
2013-03-02 17:51:00,61.4,48.3,29.64,North,4,4.0,8.0,62,0.00,,,0.00,VWS V14.01,2013-03-03 01:51:00,
2013-03-02 17:56:00,61.1,48.0,29.64,North,4,2.0,8.0,62,0.00,,,0.00,VWS V14.01,2013-03-03 01:56:00,
2013-03-02 18:00:00,71.1,40.6,29.80,NE,45,0.0,4.0,33,0.00,,,0.00,VWS V14.01,2013-03-03 02:00:00,
2013-03-02 18:01:00,60.8,47.7,29.64,North,4,1.0,8.0,62,0.00,,,0.00,VWS V14.01,2013-03-03 02:01:00,
2013-03-02 18:06:00,60.7,48.0,29.65,North,4,1.0,8.0,63,0.00,,,0.00,VWS V14.01,2013-03-03 02:06:00,
2013-03-02 18:11:00,60.4,47.8,29.64,North,4,3.0,8.0,63,0.00,,,0.00,VWS V14.01,2013-03-03 02:11:00,
2013-03-02 18:16:00,60.2,47.6,29.64,North,4,3.0,8.0,63,0.00,,,0.00,VWS V14.01,2013-03-03 02:16:00,
2013-03-02 18:21:00,60.0,47.8,29.64,North,4,0.0,8.0,64,0.00,,,0.00,VWS V14.01,2013-03-03 02:21:00,
2013-03-02 18:26:00,59.8,47.6,29.65,North,4,3.0,8.0,64,0.00,,,0.00,VWS V14.01,2013-03-03 02:26:00,
2013-03-02 18:30:00,70.4,43.6,29.79,NE,45,0.0,0.0,38,0.00,,,0.00,VWS V14.01,2013-03-03 02:30:00,
2013-03-02 18:31:00,59.7,47.5,29.64,North,4,2.0,8.0,64,0.00,,,0.00,VWS V14.01,2013-03-03 02:31:00,
2013-03-02 18:36:00,59.7,47.5,29.64,North,4,0.0,8.0,64,0.00,,,0.00,VWS V14.01,2013-03-03 02:36:00,
2013-03-02 18:41:00,59.5,47.3,29.64,North,4,2.0,8.0,64,0.00,,,0.00,VWS V14.01,2013-03-03 02:41:00,
2013-03-02 18:46:00,59.4,47.2,29.64,North,4,0.0,8.0,64,0.00,,,0.00,VWS V14.01,2013-03-03 02:46:00,
2013-03-02 18:51:00,59.3,47.1,29.64,North,4,0.0,8.0,64,0.00,,,0.00,VWS V14.01,2013-03-03 02:51:00,
2013-03-02 18:56:00,59.2,47.0,29.63,North,4,0.0,8.0,64,0.00,,,0.00,VWS V14.01,2013-03-03 02:56:00,
2013-03-02 19:00:00,67.1,48.9,29.80,NE,45,0.0,0.0,52,0.00,,,0.00,VWS V14.01,2013-03-03 03:00:00,
2013-03-02 19:01:00,59.1,47.0,29.64,North,4,0.0,8.0,64,0.00,,,0.00,VWS V14.01,2013-03-03 03:01:00,
2013-03-02 19:06:00,59.0,46.8,29.65,North,4,0.0,8.0,64,0.00,,,0.00,VWS V14.01,2013-03-03 03:06:00,
2013-03-02 19:11:00,58.9,47.6,29.65,North,4,2.0,8.0,66,0.00,,,0.00,VWS V14.01,2013-03-03 03:11:00,
2013-03-02 19:16:00,58.8,47.5,29.65,North,4,0.0,8.0,66,0.00,,,0.00,VWS V14.01,2013-03-03 03:16:00,
2013-03-02 19:21:00,58.7,47.8,29.65,North,4,2.0,8.0,67,0.00,,,0.00,VWS V14.01,2013-03-03 03:21:00,
2013-03-02 19:27:00,58.5,47.6,29.65,North,8,2.0,8.0,67,0.00,,,0.00,VWS V14.01,2013-03-03 03:27:00,
2013-03-02 19:30:00,63.8,48.8,29.80,NE,45,1.0,5.0,58,0.00,,,0.00,VWS V14.01,2013-03-03 03:30:00,
2013-03-02 19:32:00,58.3,47.8,29.65,North,8,0.0,8.0,68,0.00,,,0.00,VWS V14.01,2013-03-03 03:32:00,
2013-03-02 19:37:00,58.2,47.7,29.64,North,8,0.0,8.0,68,0.00,,,0.00,VWS V14.01,2013-03-03 03:37:00,
2013-03-02 19:42:00,58.0,47.9,29.64,North,8,1.0,8.0,69,0.00,,,0.00,VWS V14.01,2013-03-03 03:42:00,
2013-03-02 19:47:00,57.9,47.8,29.64,North,8,0.0,8.0,69,0.00,,,0.00,VWS V14.01,2013-03-03 03:47:00,
2013-03-02 19:52:00,57.9,47.8,29.64,North,8,0.0,8.0,69,0.00,,,0.00,VWS V14.01,2013-03-03 03:52:00,
2013-03-02 19:57:00,57.8,48.1,29.64,North,8,2.0,8.0,70,0.00,,,0.00,VWS V14.01,2013-03-03 03:57:00,
2013-03-02 20:00:00,61.4,47.8,29.80,North,0,3.0,6.0,61,0.00,,,0.00,VWS V14.01,2013-03-03 04:00:00,
2013-03-02 20:02:00,57.7,48.0,29.64,North,8,0.0,8.0,70,0.00,,,0.00,VWS V14.01,2013-03-03 04:02:00,
2013-03-02 20:07:00,57.5,48.2,29.64,NNE,14,2.0,8.0,71,0.00,,,0.00,VWS V14.01,2013-03-03 04:07:00,
2013-03-02 20:12:00,57.3,48.0,29.64,ENE,59,0.0,8.0,71,0.00,,,0.00,VWS V14.01,2013-03-03 04:12:00,
2013-03-02 20:17:00,57.2,47.9,29.64,ENE,59,1.0,8.0,71,0.00,,,0.00,VWS V14.01,2013-03-03 04:17:00,
2013-03-02 20:22:00,57.1,48.2,29.64,ENE,59,0.0,8.0,72,0.00,,,0.00,VWS V14.01,2013-03-03 04:22:00,
2013-03-02 20:27:00,56.9,48.0,29.64,ENE,59,0.0,8.0,72,0.00,,,0.00,VWS V14.01,2013-03-03 04:27:00,
2013-03-02 20:30:00,59.7,47.5,29.81,North,0,3.0,6.0,64,0.00,,,0.00,VWS V14.01,2013-03-03 04:30:00,
2013-03-02 20:32:00,56.8,47.9,29.65,ENE,59,0.0,8.0,72,0.00,,,0.00,VWS V14.01,2013-03-03 04:32:00,
2013-03-02 20:37:00,56.8,47.9,29.65,ENE,59,0.0,8.0,72,0.00,,,0.00,VWS V14.01,2013-03-03 04:37:00,
2013-03-02 20:42:00,56.8,47.9,29.65,ENE,59,0.0,8.0,72,0.00,,,0.00,VWS V14.01,2013-03-03 04:42:00,
2013-03-02 20:47:00,56.8,47.9,29.64,ENE,59,0.0,8.0,72,0.00,,,0.00,VWS V14.01,2013-03-03 04:47:00,
2013-03-02 20:52:00,56.7,48.2,29.65,ENE,59,0.0,8.0,73,0.00,,,0.00,VWS V14.01,2013-03-03 04:52:00,
2013-03-02 20:57:00,56.5,48.0,29.65,ENE,59,2.0,8.0,73,0.00,,,0.00,VWS V14.01,2013-03-03 04:57:00,
2013-03-02 21:00:00,58.3,47.0,29.81,North,0,3.0,6.0,66,0.00,,,0.00,VWS V14.01,2013-03-03 05:00:00,
2013-03-02 21:02:00,56.4,47.9,29.65,ENE,59,2.0,8.0,73,0.00,,,0.00,VWS V14.01,2013-03-03 05:02:00,
2013-03-02 21:07:00,56.1,47.6,29.65,ENE,61,1.0,8.0,73,0.00,,,0.00,VWS V14.01,2013-03-03 05:07:00,
2013-03-02 21:12:00,56.1,47.6,29.65,ENE,61,0.0,8.0,73,0.00,,,0.00,VWS V14.01,2013-03-03 05:12:00,
2013-03-02 21:17:00,56.0,47.5,29.65,ENE,61,0.0,8.0,73,0.00,,,0.00,VWS V14.01,2013-03-03 05:17:00,
2013-03-02 21:22:00,55.9,47.4,29.66,ENE,61,0.0,8.0,73,0.00,,,0.00,VWS V14.01,2013-03-03 05:22:00,
2013-03-02 21:27:00,55.7,47.2,29.66,ENE,61,0.0,8.0,73,0.00,,,0.00,VWS V14.01,2013-03-03 05:27:00,
2013-03-02 21:30:00,57.3,46.5,29.82,North,0,3.0,4.0,67,0.00,,,0.00,VWS V14.01,2013-03-03 05:30:00,
2013-03-02 21:32:00,55.6,47.1,29.66,ENE,61,0.0,8.0,73,0.00,,,0.00,VWS V14.01,2013-03-03 05:32:00,
2013-03-02 21:37:00,55.5,47.0,29.66,ENE,61,0.0,8.0,73,0.00,,,0.00,VWS V14.01,2013-03-03 05:37:00,
2013-03-02 21:42:00,55.5,47.4,29.66,ENE,61,0.0,8.0,74,0.00,,,0.00,VWS V14.01,2013-03-03 05:42:00,
2013-03-02 21:47:00,55.3,47.2,29.66,ENE,61,0.0,8.0,74,0.00,,,0.00,VWS V14.01,2013-03-03 05:47:00,
2013-03-02 21:52:00,55.3,47.2,29.65,ENE,61,0.0,8.0,74,0.00,,,0.00,VWS V14.01,2013-03-03 05:52:00,
2013-03-02 21:57:00,55.2,47.1,29.65,ENE,61,0.0,8.0,74,0.00,,,0.00,VWS V14.01,2013-03-03 05:57:00,
2013-03-02 22:00:00,55.9,45.5,29.81,North,0,3.0,5.0,68,0.00,,,0.00,VWS V14.01,2013-03-03 06:00:00,
2013-03-02 22:02:00,55.1,47.0,29.66,ENE,61,0.0,8.0,74,0.00,,,0.00,VWS V14.01,2013-03-03 06:02:00,
2013-03-02 22:07:00,55.0,46.9,29.65,ENE,61,0.0,8.0,74,0.00,,,0.00,VWS V14.01,2013-03-03 06:07:00,
2013-03-02 22:12:00,55.0,46.9,29.66,ENE,61,2.0,8.0,74,0.00,,,0.00,VWS V14.01,2013-03-03 06:12:00,
2013-03-02 22:17:00,54.9,47.1,29.66,ENE,61,2.0,8.0,75,0.00,,,0.00,VWS V14.01,2013-03-03 06:17:00,
2013-03-02 22:22:00,54.8,47.0,29.66,ENE,61,1.0,8.0,75,0.00,,,0.00,VWS V14.01,2013-03-03 06:22:00,
2013-03-02 22:27:00,54.6,46.8,29.66,ENE,61,0.0,8.0,75,0.00,,,0.00,VWS V14.01,2013-03-03 06:27:00,
2013-03-02 22:30:00,55.2,44.8,29.81,North,0,2.0,4.0,68,0.00,,,0.00,VWS V14.01,2013-03-03 06:30:00,
2013-03-02 22:32:00,54.6,47.2,29.66,ENE,61,0.0,8.0,76,0.00,,,0.00,VWS V14.01,2013-03-03 06:32:00,
2013-03-02 22:37:00,54.6,46.8,29.65,ENE,61,0.0,8.0,75,0.00,,,0.00,VWS V14.01,2013-03-03 06:37:00,
2013-03-02 22:42:00,54.7,46.9,29.66,ENE,61,0.0,8.0,75,0.00,,,0.00,VWS V14.01,2013-03-03 06:42:00,
2013-03-02 22:47:00,54.7,46.9,29.66,ENE,61,0.0,8.0,75,0.00,,,0.00,VWS V14.01,2013-03-03 06:47:00,
2013-03-02 22:52:00,54.6,46.8,29.66,ENE,61,0.0,8.0,75,0.00,,,0.00,VWS V14.01,2013-03-03 06:52:00,
2013-03-02 22:57:00,54.6,46.8,29.66,ENE,61,0.0,8.0,75,0.00,,,0.00,VWS V14.01,2013-03-03 06:57:00,
2013-03-02 23:00:00,54.5,44.5,29.81,North,0,2.0,4.0,69,0.00,,,0.00,VWS V14.01,2013-03-03 07:00:00,
2013-03-02 23:02:00,54.6,46.8,29.66,ENE,61,0.0,8.0,75,0.00,,,0.00,VWS V14.01,2013-03-03 07:02:00,
2013-03-02 23:07:00,54.4,46.7,29.65,ENE,61,0.0,8.0,75,0.00,,,0.00,VWS V14.01,2013-03-03 07:07:00,
2013-03-02 23:12:00,54.3,46.6,29.65,ENE,61,0.0,8.0,75,0.00,,,0.00,VWS V14.01,2013-03-03 07:12:00,
2013-03-02 23:17:00,54.3,46.6,29.65,ENE,61,0.0,8.0,75,0.00,,,0.00,VWS V14.01,2013-03-03 07:17:00,
2013-03-02 23:22:00,54.2,46.5,29.65,ENE,61,0.0,8.0,75,0.00,,,0.00,VWS V14.01,2013-03-03 07:22:00,
2013-03-02 23:27:00,54.2,46.5,29.65,ENE,61,0.0,8.0,75,0.00,,,0.00,VWS V14.01,2013-03-03 07:27:00,
2013-03-02 23:30:00,53.8,44.3,29.81,North,0,2.0,4.0,70,0.00,,,0.00,VWS V14.01,2013-03-03 07:30:00,
2013-03-02 23:32:00,54.1,46.4,29.64,ENE,61,0.0,8.0,75,0.00,,,0.00,VWS V14.01,2013-03-03 07:32:00,
2013-03-02 23:37:00,54.0,46.3,29.65,ENE,61,0.0,8.0,75,0.00,,,0.00,VWS V14.01,2013-03-03 07:37:00,
2013-03-02 23:42:00,53.9,46.5,29.65,ENE,61,0.0,8.0,76,0.00,,,0.00,VWS V14.01,2013-03-03 07:42:00,
2013-03-02 23:47:00,53.9,46.9,29.65,ENE,61,1.0,8.0,77,0.00,,,0.00,VWS V14.01,2013-03-03 07:47:00,
2013-03-02 23:52:00,53.8,47.1,29.64,ENE,61,3.0,8.0,78,0.00,,,0.00,VWS V14.01,2013-03-03 07:52:00,
2013-03-02 23:57:00,53.8,46.8,29.64,ENE,71,0.0,8.0,77,0.00,,,0.00,VWS V14.01,2013-03-03 07:57:00,